28 de setembro de 2022

Hora Código Clima Temp. Visibilidade Tecto Vento METAR/SPECI
23:00
V
11 °C 15 mi 4.800 ft 300° 300° 4 kt METAR CYUL 290300Z 30004KT 15SM BKN048 11/07 A3029 RMK SC5 SLP258
22:00
V
11 °C 15 mi 5.200 ft 320° 320° 7 kt METAR CYUL 290200Z 32007KT 15SM BKN052 11/07 A3026 RMK SC5 SLP251
21:00
V
12 °C 15 mi 5.500 ft 300° 300° 9 kt METAR CYUL 290100Z 30009KT 15SM BKN055 12/08 A3025 RMK SC7 SLP245
20:00
V
13 °C 15 mi 5.500 ft 300° 300° 9 kt METAR CYUL 290000Z 30009KT 15SM BKN055 13/08 A3022 RMK SC6 SLP236
19:00
V
13 °C 15 mi 7.500 ft 300° 300° 9 - 18 kt METAR CYUL 282300Z 30009G18KT 15SM SCT035 BKN075 BKN250 13/08 A3019 RMK SC3AC2CI2 SLP225
18:00
V
15 °C 15 mi 6.500 ft 290° 290° 11 kt METAR CYUL 282200Z 29011KT 15SM BKN065 15/09 A3016 RMK SC5 CU ASOCTD SLP217
17:00
V
16 °C 15 mi 6.500 ft 290° 290° 12 - 17 kt METAR CYUL 282100Z 29012G17KT 15SM BKN065 16/09 A3014 RMK SC6 SLP210
16:00
V
16 °C 15 mi 6.500 ft 300° 300° 11 kt METAR CYUL 282000Z 30011KT 15SM FEW025 OVC065 16/09 A3013 RMK CU1SC7 SLP206
15:00
V
16 °C 15 mi 5.500 ft 310° 310° 10 kt METAR CYUL 281900Z 31010KT 15SM OVC055 16/09 A3011 RMK SC8 SLP199
14:00
V
17 °C 15 mi 6.000 ft 310° 310° 9 - 15 kt METAR CYUL 281800Z 31009G15KT 15SM FEW035 OVC060 17/09 A3010 RMK SC2SC6 SLP194 DENSITY ALT 200FT
13:00
V
17 °C 15 mi 3.500 ft 290° 290° 8 kt METAR CYUL 281700Z 29008KT 15SM OVC035 17/09 A3008 RMK SC8 SLP188 DENSITY ALT 200FT
12:00
V
17 °C 15 mi 4.500 ft 320° 320° 7 kt METAR CYUL 281600Z 32007KT 15SM OVC045 17/10 A3006 RMK SC8 SLP182 DENSITY ALT 200FT
11:00
V
15 °C 15 mi 3.500 ft 330° 330° 10 - 17 kt METAR CYUL 281500Z 33010G17KT 15SM BKN035 OVC080 15/10 A3005 RMK SC7AC1 SLP177
10:20
V
14 °C 15 mi 9.000 ft 320° 320° 6 kt METAR CYUL 281420Z 32006KT 15SM SCT040 BKN090 BKN250 14/11 A3003 RMK SC4AC2CI1 CU ASOCTD SLP172
10:00
V
14 °C 15 mi 3.800 ft 300° 300° 7 kt METAR CYUL 281400Z 30007KT 15SM -SHRA BKN038 BKN085 14/12 A3003 RMK SC5AC2 CVCTV CLD EMBD SLP171
09:54
V
14 °C 15 mi 8.000 ft 310° 310° 5 kt METAR CYUL 281354Z 31005KT 15SM -SHRA SCT035 BKN080 14/12 A3002 RMK SC3AC4 CVCTV CLD EMBD SLP170
09:38
V
14 °C 15 mi 7.500 ft 310° 310° 5 kt METAR CYUL 281338Z 31005KT 15SM FEW035 SCT055 BKN075 14/12 A3002 RMK SC1SC3AC3 SLP169
09:06
V
14 °C 15 mi 3.500 ft 320° 320° 7 kt METAR CYUL 281306Z 32007KT 15SM -SHRA FEW030 BKN035 OVC075 14/11 A3001 RMK SC1SC5AC2 CTVCLD EMBD SLP164
08:00
V
13 °C 15 mi 3.500 ft 300° 300° 5 kt METAR CYUL 281200Z 30005KT 15SM BKN035 BKN050 OVC090 13/11 A2997 RMK SC5SC2AC1 SLP153
07:00
V
12 °C 15 mi 5.000 ft 310° 310° 5 kt METAR CYUL 281100Z 31005KT 15SM SCT038 BKN050 BKN090 12/11 A2994 RMK SC4SC2AC1 SLP142
06:00
V
12 °C 15 mi 9.500 ft 300° 300° 5 kt METAR CYUL 281000Z 30005KT 15SM SCT042 SCT060 BKN095 12/11 A2992 RMK SC3SC1AC1 SLP134
05:00
V
11 °C 15 mi - 300° 300° 5 kt METAR CYUL 280900Z 30005KT 15SM FEW060 SCT080 SCT120 11/11 A2990 RMK SC1AC2AC1 SLP127
04:00
V
12 °C 15 mi - 300° 300° 3 kt METAR CYUL 280800Z 30003KT 15SM FEW090 12/11 A2988 RMK AC2 SLP120
03:00
V
12 °C 15 mi - 300° 300° 5 kt METAR CYUL 280700Z 30005KT 15SM SCT085 12/11 A2986 RMK AC4 SLP116
02:00
V
13 °C 15 mi - 250° 250° 5 kt METAR CYUL 280600Z 25005KT 15SM FEW040 SCT068 13/12 A2986 RMK SC1AC3 SC TR SLP114
01:00
V
12 °C 15 mi 8.700 ft 250° 250° 7 kt METAR CYUL 280500Z 25007KT 15SM BKN087 12/11 A2984 RMK AC5 SLP107
00:00
V
13 °C 15 mi - 230° 230° 8 kt METAR CYUL 280400Z 23008KT 15SM SCT085 13/11 A2983 RMK AC4 SLP105

27 de setembro de 2022

Hora Código Clima Temp. Visibilidade Tecto Vento METAR/SPECI
23:00
V
12 °C 15 mi - 220° 220° 5 kt METAR CYUL 280300Z 22005KT 15SM FEW090 12/10 A2982 RMK AC1 AC TR SLP102
22:00
V
12 °C 15 mi - 240° 240° 4 kt METAR CYUL 280200Z 24004KT 15SM FEW055 FEW090 FEW240 12/10 A2981 RMK SC1AC1CI1 SC TR AC TR CI TR SLP097
21:00
V
12 °C 15 mi 9.000 ft 250° 250° 5 kt METAR CYUL 280100Z 25005KT 15SM FEW055 BKN090 12/11 A2980 RMK SC2AC3 SLP094
20:00
V
13 °C 15 mi - 240° 240° 4 kt METAR CYUL 280000Z 24004KT 15SM FEW060 SCT080 13/11 A2978 RMK CU1AC3 CU TR SLP089 DENSITY ALT 200FT
19:00
V
15 °C 15 mi - 270° 270° 2 kt METAR CYUL 272300Z 27002KT 15SM FEW035 SCT180 15/11 A2976 RMK SC2AC1 SLP081 DENSITY ALT 300FT
18:00
V
16 °C 15 mi 25.000 ft 260° 260° 5 kt METAR CYUL 272200Z 26005KT 15SM SCT035 BKN250 16/11 A2974 RMK SC3CI2 CU ASOCTD SLP074 DENSITY ALT 500FT
17:00
V
16 °C 15 mi 8.000 ft 290° 290° 4 kt METAR CYUL 272100Z 29004KT 250V330 15SM FEW025 BKN080 16/12 A2973 RMK CU2AC4 SLP068 DENSITY ALT 500FT
16:00
V
16 °C 15 mi 8.000 ft 240° 240° 8 kt METAR CYUL 272000Z 24008KT 15SM FEW020 SCT040 BKN080 16/12 A2971 RMK CU1SC2AC4 SLP062 DENSITY ALT 500FT
15:00
V
15 °C 15 mi 7.500 ft 250° 250° 12 - 18 kt METAR CYUL 271900Z 25012G18KT 15SM FEW018 OVC075 15/12 A2970 RMK SC2AC6 SLP059 DENSITY ALT 400FT
14:44
V
15 °C 15 mi 5.000 ft 220° 220° 12 kt METAR CYUL 271844Z 22012KT 15SM FEW022 OVC050 15/13 A2970 RMK SC2SC6 SLP058 DENSITY ALT 400FT
14:00
M
14 °C 15 mi 2.500 ft 230° 230° 11 kt METAR CYUL 271800Z 23011KT 15SM -RA SCT014 OVC025 14/12 A2969 RMK SC3SC5 -RA INTMT SLP055 DENSITY ALT 300FT
13:51
V
14 °C 15 mi 4.000 ft 230° 230° 12 - 17 kt METAR CYUL 271751Z 23012G17KT 15SM -RA SCT025 OVC040 14/12 A2968 RMK SC3SC5 -RA INTMT SLP054 DENSITY ALT 300FT
13:00
V
14 °C 15 mi 3.400 ft 230° 230° 12 - 19 kt METAR CYUL 271700Z 23012G19KT 15SM -RA SCT023 BKN034 OVC050 14/12 A2968 RMK SC3SC4SC1 SLP051 DENSITY ALT 400FT
12:00
V
14 °C 15 mi 5.000 ft 220° 220° 13 - 21 kt METAR CYUL 271600Z 22013G21KT 15SM FEW010 SCT030 BKN050 OVC080 14/12 A2966 RMK SF1SC3SC3AC2 SF TR SLP045 DENSITY ALT 400FT
11:39
V
14 °C 15 mi 3.500 ft 210° 210° 17 - 22 kt METAR CYUL 271539Z 21017G22KT 15SM FEW010 FEW018 OVC035 14/12 A2965 RMK SF1SC2SC6 SF TR SLP042 DENSITY ALT 300FT
11:00
M
13 °C 10 mi 1.500 ft 160° 160° 10 kt METAR CYUL 271500Z 16010KT 10SM R24R/5500VP6000FT/U -RA OVC015 13/12 A2965 RMK SC8 SLP041 DENSITY ALT 200FT
10:50
M
12 °C 8 mi 1.700 ft 150° 150° 9 kt METAR CYUL 271450Z 15009KT 8SM -RA OVC017 12/11 A2965 RMK SC8 SLP041 DENSITY ALT 200FT
10:10
M
12 °C 6 mi 1.800 ft 150° 150° 10 kt METAR CYUL 271410Z 15010KT 6SM R24L/5500VP6000FT/U RA OVC018 12/11 A2964 RMK SC8 SLP039 DENSITY ALT 200FT
10:00
M
12 °C 8 mi 2.500 ft 160° 160° 8 kt METAR CYUL 271400Z 16008KT 8SM -RA FEW018 OVC025 12/11 A2964 RMK SC2SC6 SLP038 DENSITY ALT 200FT
09:00
M
12 °C 12 mi 2.800 ft 110° 110° 5 kt METAR CYUL 271300Z 11005KT 12SM -SHRA BKN028 OVC040 12/10 A2962 RMK SC7SC1 SLP034 DENSITY ALT 200FT
08:00
V
12 °C 15 mi 3.400 ft 110° 110° 7 kt METAR CYUL 271200Z 11007KT 15SM -SHRA BKN034 12/10 A2962 RMK SC7 SLP033
07:00
V
12 °C 15 mi 3.400 ft 120° 120° 8 kt METAR CYUL 271100Z 12008KT 15SM -SHRA BKN034 12/10 A2962 RMK SC7 CVCTV CLD EMBD SLP032 DENSITY ALT 200FT
06:00
V
12 °C 15 mi 4.200 ft 110° 110° 5 kt METAR CYUL 271000Z 11005KT 15SM OVC042 12/10 A2961 RMK SC8 SLP028 DENSITY ALT 200FT
05:20
V
12 °C 15 mi 4.000 ft 120° 120° 6 kt METAR CYUL 270920Z 12006KT 15SM BKN040 OVC090 12/10 A2961 RMK SC6AC2 SLP029 DENSITY ALT 200FT
05:00
V
12 °C 15 mi 4.200 ft 120° 120° 4 kt METAR CYUL 270900Z 12004KT 15SM -SHRA BKN042 OVC100 12/10 A2961 RMK SC6AC2 CVCTV CLD EMBD SLP029 DENSITY ALT 200FT
04:00
V
13 °C 15 mi 3.000 ft 160° 160° 8 kt METAR CYUL 270800Z 16008KT 15SM -SHRA BKN030 OVC110 13/11 A2962 RMK SC7AC1 CVCTV CLD EMBD SLP032 DENSITY ALT 200FT
03:48
V
13 °C 15 mi 3.000 ft 160° 160° 6 kt METAR CYUL 270748Z 16006KT 15SM -SHRA OVC030 13/11 A2962 RMK SC8 CVCTV CLD EMBD SLP032 DENSITY ALT 200FT
03:00
V
13 °C 15 mi 7.200 ft 130° 130° 5 kt METAR CYUL 270700Z 13005KT 15SM FEW040 BKN072 BKN090 OVC140 13/11 A2962 RMK SC1AC4AC1AC2 SLP031 DENSITY ALT 300FT
02:00
V
13 °C 15 mi 7.500 ft 170° 170° 8 kt METAR CYUL 270600Z 17008KT 15SM -SHRA FEW050 OVC075 13/11 A2963 RMK SC2AC6 CTVCLD EMBD SLP035 DENSITY ALT 300FT
01:00
V
13 °C 15 mi 7.300 ft 160° 160° 8 kt METAR CYUL 270500Z 16008KT 15SM BKN073 13/11 A2962 RMK AC5 SLP032 DENSITY ALT 300FT
00:00
V
13 °C 15 mi 11.000 ft 160° 160° 10 kt METAR CYUL 270400Z 16010KT 15SM FEW040 SCT060 BKN110 13/11 A2962 RMK SC1SC2AC2 SLP031 DENSITY ALT 300FT

26 de setembro de 2022

Hora Código Clima Temp. Visibilidade Tecto Vento METAR/SPECI
23:25
V
14 °C 15 mi 8.000 ft 180° 180° 9 kt METAR CYUL 270325Z 18009KT 15SM -SHRA BKN080 BKN140 14/11 A2962 RMK AC5AC1 CVCTV CLD EMBD SLP031 DENSITY ALT 400FT
23:00
V
13 °C 15 mi 10.000 ft 170° 170° 8 kt METAR CYUL 270300Z 17008KT 15SM FEW080 BKN100 BKN130 13/11 A2961 RMK AC2AC3AC1 SLP030 DENSITY ALT 400FT
22:00
V
14 °C 15 mi 10.000 ft 200° 200° 8 kt METAR CYUL 270200Z 20008KT 15SM SCT075 BKN100 BKN140 14/11 A2961 RMK AC4AC2AC1 SLP029 DENSITY ALT 400FT
21:00
V
13 °C 15 mi 8.000 ft 150° 150° 6 kt METAR CYUL 270100Z 15006KT 15SM BKN080 BKN250 13/12 A2961 RMK AC5CI1 SLP029 DENSITY ALT 300FT
20:00
V
14 °C 15 mi 7.500 ft 240° 240° 2 kt METAR CYUL 270000Z 24002KT 15SM BKN075 BKN250 14/12 A2960 RMK AC6CI1 SLP026 DENSITY ALT 500FT
19:43
V
14 °C 14 mi 7.500 ft 240° 240° 3 kt METAR CYUL 262343Z 24003KT 220V300 14SM OVC075 14/12 A2960 RMK AC8 SLP024 DENSITY ALT 500FT
19:00
V
14 °C 10 mi 4.400 ft 230° 230° 5 kt METAR CYUL 262300Z 23005KT 190V250 10SM -RA BKN044 BKN080 14/12 A2958 RMK SC5AC2 SLP020 DENSITY ALT 500FT
18:00
V
15 °C 10 mi 8.000 ft 250° 250° 4 kt METAR CYUL 262200Z 25004KT 10SM -RA FEW025 OVC080 15/13 A2957 RMK SC1AC7 SLP016 DENSITY ALT 600FT
17:47
V
15 °C 10 mi 8.000 ft 230° 230° 6 kt METAR CYUL 262147Z 23006KT 10SM -RA SCT025 OVC080 15/12 A2956 RMK SC3AC5 SLP013 DENSITY ALT 600FT
Dados mais antigos

Nós e terceiros acompanhamos seu comportamento na internet em nosso site com cookies. Se você continuar, nós assumimos que você concorda com nossa política de cookies. Saiba mais